This demonstration page uses our WeatherBlox Daily Observations layout. Learn more.

Left ArrowRight Arrow

Hourly Observations for September 10, 2017

Temp ( °F °C ) Dew Point ( °F °C ) Humidity (%) Winds ( mph kmh ) Pressure ( in mb ) Visibility ( mi km ) Precip ( " mm )
12:54 am 00:54 Clear 70 21.1 58 14.4 66 66 SSE 13 20 30.15 1021 10 16.0934 0 0
1:54 am 01:54 Clear 69 20.6 58 14.4 68 68 S 15 24 30.15 1021 10 16.0934 0 0
2:54 am 02:54 Clear 68 20 58 14.4 70 70 S 12 19 30.16 1021 10 16.0934 0 0
3:54 am 03:54 Clear 67 19.4 58 14.4 73 73 S 13 20 30.16 1021 10 16.0934 0 0
4:54 am 04:54 Mostly Clear 67 19.4 57 13.9 71 71 S 10 17 30.16 1021 10 16.0934 0 0
5:54 am 05:54 Clear 65 18.3 57 13.9 76 76 S 9 15 30.18 1022 10 16.0934 0 0
6:54 am 06:54 Partly Cloudy 66 18.9 57 13.9 73 73 S 12 19 30.19 1022 10 16.0934 0 0
7:54 am 07:54 Sunny 68 20 58 14.4 70 70 S 7 11 30.19 1023 10 16.0934 0 0
8:51 am 08:51 Sunny with Nearby Thunderstorms 70 21 59 15 69 69 SSE 3 6 30.21 1023 10 16.0934 0 0.0254
8:54 am 08:54 Sunny with Nearby Thunderstorms 70 21.1 59 15 68 68 Calm 30.23 1024 10 16.0934 0 0.0254
9:06 am 09:06 Sunny 71 21.7 59 15 66 66 SSE 5 7 30.24 1024 10 16.0934 0 0
9:54 am 09:54 Sunny 72 22.2 59 15 64 64 SSE 10 17 30.23 1024 10 16.0934 0 0
10:54 am 10:54 Mostly Sunny 73 22.8 58 14.4 59 59 SSE 6 9 30.24 1024 10 16.0934 0 0
11:54 am 11:54 Partly Cloudy 73 22.8 60 15.6 64 64 S 13 20 30.19 1022 10 16.0934 0 0.0254
12:54 pm 12:54 Sunny 77 25 58 14.4 52 52 S 17 28 30.17 1022 10 16.0934 0 0
1:54 pm 13:54 Sunny 82 27.8 58 14.4 44 44 SSW 22 35 30.15 1021 10 16.0934 0 0
2:54 pm 14:54 Sunny 84 28.9 58 14.4 41 41 SSW 18 30 30.13 1020 10 16.0934 0 0
3:54 pm 15:54 Sunny 81 27.2 56 13.3 42 42 SW 15 24 30.13 1020 10 16.0934 0 0
4:54 pm 16:54 Sunny 84 28.9 56 13.3 38 38 SSW 12 19 30.12 1020 10 16.0934 0 0
5:54 pm 17:54 Sunny 83 28.3 55 12.8 38 38 S 13 20 30.11 1020 10 16.0934 0 0
6:54 pm 18:54 Sunny 78 25.6 58 14.4 50 50 S 8 13 30.11 1020 10 16.0934 0 0
7:54 pm 19:54 Clear 73 22.8 59 15 62 62 S 7 11 30.11 1020 10 16.0934 0 0
8:54 pm 20:54 Clear 71 21.7 58 14.4 63 63 S 8 13 30.13 1020 10 16.0934 0 0
9:54 pm 21:54 Clear 69 20.6 58 14.4 68 68 S 8 13 30.14 1021 10 16.0934 0 0
10:54 pm 22:54 Clear 70 21.1 58 14.4 66 66 S 12 19 30.15 1021 10 16.0934 0 0
11:54 pm 23:54 Clear 68 20 58 14.4 70 70 S 9 15 30.16 1021 10 16.0934 0 0

Powered by AerisWeather